This is the latest recevied weather packets stored in our database for station/object KC3DGM. If no packets are shown the sender has not sent any weather packets the latest 10 day(s).
| Time | Temp. | Humidity | Pressure | Rain* | Wind** | Luminosity | Snow |
|---|---|---|---|---|---|---|---|
| 1778064040 | 8.33° C | 99% | 978.7 hPa | 3.56 mm | - | 0 W/m² | - |
| 1778063737 | 8.33° C | 99% | 978.9 hPa | 4.83 mm | - | 0 W/m² | - |
| 1778063433 | 8.33° C | 99% | 978.4 hPa | 4.32 mm | - | 0 W/m² | - |
| 1778063132 | 8.33° C | 99% | 978.8 hPa | 4.32 mm | - | 0 W/m² | - |
| 1778062829 | 8.33° C | 99% | 978.6 hPa | 4.83 mm | - | 0 W/m² | - |
| 1778062526 | 8.33° C | 99% | 979 hPa | 3.05 mm | - | 0 W/m² | - |
| 1778062223 | 8.33° C | 99% | 978.8 hPa | 3.05 mm | - | 0 W/m² | - |
| 1778061921 | 8.33° C | 99% | 978.7 hPa | 1.78 mm | - | 0 W/m² | - |
| 1778061619 | 8.33° C | 99% | 978.4 hPa | 1.27 mm | - | 0 W/m² | - |
| 1778061317 | 8.33° C | 99% | 978.2 hPa | 1.27 mm | - | 0 W/m² | - |
| 1778061013 | 8.33° C | 99% | 978 hPa | 0 mm | - | 0 W/m² | - |
| 1778060711 | 8.33° C | 99% | 978.1 hPa | 1.78 mm | - | 0 W/m² | - |
| 1778060409 | 8.33° C | 99% | 978.1 hPa | 1.78 mm | - | 0 W/m² | - |
| 1778060107 | 8.33° C | 99% | 978.2 hPa | 1.27 mm | - | 0 W/m² | - |
| 1778059804 | 8.33° C | 99% | 978.1 hPa | 3.05 mm | - | 0 W/m² | - |
| 1778059502 | 8.33° C | 99% | 978.3 hPa | 3.56 mm | - | 0 W/m² | - |
| 1778059198 | 8.33° C | 99% | 978.2 hPa | 3.05 mm | - | 0 W/m² | - |
| 1778058897 | 8.33° C | 99% | 978.5 hPa | 3.05 mm | - | 0 W/m² | - |
| 1778058593 | 8.33° C | 99% | 978.1 hPa | 3.05 mm | - | 0 W/m² | - |
| 1778058291 | 8.89° C | 99% | 978.4 hPa | 4.32 mm | - | 0 W/m² | - |
| 1778057987 | 8.89° C | 99% | 978.5 hPa | 3.05 mm | - | 0 W/m² | - |
| 1778057684 | 8.89° C | 99% | 978.3 hPa | 3.05 mm | - | 0 W/m² | - |
| 1778057381 | 8.89° C | 99% | 978.4 hPa | 3.05 mm | - | 0 W/m² | - |
| 1778057078 | 8.89° C | 99% | 978.5 hPa | 3.05 mm | - | 0 W/m² | - |
| 1778056773 | 8.89° C | 99% | 978.2 hPa | 3.05 mm | - | 0 W/m² | - |
* Rain latest hour (hover to see other rain measurements)
** Current wind speed in m/s (hover to see current wind gust speed)